DW2803 Weather Reports


time (UTC)temp
F
wind
direction
speed
knots
gust
knots
rain 1hr
in
rain 24hr
in
rain mn
in
humidity
%
barometer
mb
20260503070314 54 206 0.0 1.7 0.00 0.00 0.00 61 1014.4
20260503070210 54 207 0.0 1.7 0.00 0.00 0.00 62 1014.4
20260503070121 54 207 0.0 1.7 0.00 0.00 0.00 61 1014.4
20260503060320 58 268 0.0 0.9 0.00 0.00 0.00 52 1014.0
20260503060210 58 268 0.0 0.9 0.00 0.00 0.00 52 1014.0
20260503060127 58 268 0.0 0.9 0.00 0.00 0.00 52 1014.0
20260503055009 59 239 0.0 4.3 0.00 0.00 0.00 52 1013.9
20260503054918 59 239 0.9 4.3 0.00 0.00 0.00 51 1013.9
20260503054812 59 239 1.7 4.3 0.00 0.00 0.00 51 1014.0
20260503054717 59 241 1.7 4.3 0.00 0.00 0.00 51 1013.9
20260503054640 59 247 1.7 4.3 0.00 0.00 0.00 51 1013.9
20260503054534 59 231 1.7 3.5 0.00 0.00 0.00 51 1013.9
20260503054421 59 242 0.9 3.5 0.00 0.00 0.00 51 1013.9
20260503054322 59 237 1.7 3.5 0.00 0.00 0.00 51 1013.9
20260503054217 59 237 0.9 2.6 0.00 0.00 0.00 51 1013.9
20260503054126 59 239 0.9 2.6 0.00 0.00 0.00 52 1013.9
20260503054021 59 237 0.9 2.6 0.00 0.00 0.00 51 1013.9
20260503053933 59 243 0.9 2.6 0.00 0.00 0.00 51 1013.9
20260503053839 59 239 0.9 2.6 0.00 0.00 0.00 51 1013.9
20260503053709 59 237 0.9 2.6 0.00 0.00 0.00 51 1013.9
20260503053620 59 237 0.9 2.6 0.00 0.00 0.00 51 1013.9
20260503053526 60 241 0.9 2.6 0.00 0.00 0.00 50 1013.9
20260503053417 60 253 0.9 3.5 0.00 0.00 0.00 50 1013.9
20260503053344 60 235 0.9 3.5 0.00 0.00 0.00 51 1013.9
20260503053209 60 237 0.0 3.5 0.00 0.00 0.00 50 1013.9
20260503053129 60 237 0.9 3.5 0.00 0.00 0.00 50 1013.9
20260503053027 60 237 0.9 3.5 0.00 0.00 0.00 50 1013.9
20260503052913 60 238 1.7 3.5 0.00 0.00 0.00 50 1013.9
20260503052826 60 238 0.9 3.5 0.00 0.00 0.00 51 1013.9
20260503052711 60 245 1.7 3.5 0.00 0.00 0.00 51 1013.9
20260503052626 60 237 1.7 3.5 0.00 0.00 0.00 50 1013.9
20260503052533 60 247 0.9 3.5 0.00 0.00 0.00 50 1013.9
20260503052418 60 247 1.7 3.5 0.00 0.00 0.00 50 1013.9
20260503052314 60 245 1.7 3.5 0.00 0.00 0.00 50 1013.9
20260503052210 60 239 1.7 3.5 0.00 0.00 0.00 50 1013.9
20260503052121 60 241 1.7 3.5 0.00 0.00 0.00 50 1013.9
20260503052016 60 248 0.9 3.5 0.00 0.00 0.00 50 1013.9
20260503051926 60 245 0.9 3.5 0.00 0.00 0.00 50 1013.9
20260503051808 60 244 1.7 3.5 0.00 0.00 0.00 49 1013.9
20260503051731 60 228 1.7 3.5 0.00 0.00 0.00 49 1013.9
20260503051622 60 230 1.7 3.5 0.00 0.00 0.00 49 1013.9
20260503051513 60 229 1.7 3.5 0.00 0.00 0.00 49 1013.9
20260503051419 60 236 1.7 3.5 0.00 0.00 0.00 50 1013.8
20260503051309 60 235 2.6 3.5 0.00 0.00 0.00 50 1013.9
20260503051221 60 225 2.6 3.5 0.00 0.00 0.00 50 1013.9
20260503051138 60 236 2.6 3.5 0.00 0.00 0.00 50 1013.9
20260503051012 60 235 1.7 3.5 0.00 0.00 0.00 50 1013.8
20260503050918 60 238 1.7 3.5 0.00 0.00 0.00 50 1013.9
20260503050835 60 237 1.7 3.5 0.00 0.00 0.00 50 1013.9
20260503050717 60 235 2.6 3.5 0.00 0.00 0.00 50 1013.9
20260503050701 60 235 2.6 3.5 0.00 0.00 0.00 50 1013.9
20260503050535 60 239 2.6 3.5 0.00 0.00 0.00 50 1014.0
20260503050420 60 245 2.6 3.5 0.00 0.00 0.00 50 1013.8
20260503050333 60 240 2.6 3.5 0.00 0.00 0.00 50 1013.9
20260503050222 60 239 2.6 3.5 0.00 0.00 0.00 51 1013.9
20260503050138 60 233 1.7 3.5 0.00 0.00 0.00 51 1013.9
20260503050012 59 239 0.9 2.6 0.00 0.00 0.00 52 1013.8
20260503045924 59 243 0.9 2.6 0.00 0.00 0.00 52 1013.9
20260503045810 59 237 0.9 2.6 0.00 0.00 0.00 52 1013.8
20260503045709 59 236 0.9 2.6 0.00 0.00 0.00 52 1013.8
20260503045641 59 239 0.9 2.6 0.00 0.00 0.00 53 1013.8
20260503045517 59 233 0.9 2.6 0.00 0.00 0.00 52 1013.8
20260503045422 60 229 0.9 2.6 0.00 0.00 0.00 52 1013.8
20260503045354 60 240 0.9 2.6 0.00 0.00 0.00 53 1013.8
20260503045212 60 233 0.9 2.6 0.00 0.00 0.00 53 1013.7
20260503045135 60 239 1.7 2.6 0.00 0.00 0.00 53 1013.7
20260503045013 60 228 0.9 2.6 0.00 0.00 0.00 53 1013.8
20260503044927 60 237 0.9 2.6 0.00 0.00 0.00 53 1013.8
20260503044832 60 220 0.9 2.6 0.00 0.00 0.00 53 1013.7
20260503044708 60 245 0.9 2.6 0.00 0.00 0.00 52 1013.7
20260503044641 60 239 0.9 2.6 0.00 0.00 0.00 52 1013.7
20260503044538 60 249 0.9 2.6 0.00 0.00 0.00 52 1013.7
20260503044451 60 233 0.9 2.6 0.00 0.00 0.00 52 1013.8
20260503044335 60 233 0.9 3.5 0.00 0.00 0.00 52 1013.7
20260503044210 60 241 0.9 3.5 0.00 0.00 0.00 52 1013.7
20260503044121 60 241 0.0 3.5 0.00 0.00 0.00 51 1013.8
20260503044036 60 241 0.9 3.5 0.00 0.00 0.00 51 1013.7
20260503043927 60 241 0.9 3.5 0.00 0.00 0.00 51 1013.7
20260503043817 61 243 0.9 3.5 0.00 0.00 0.00 51 1013.7
20260503043713 61 247 0.9 3.5 0.00 0.00 0.00 51 1013.7
20260503043646 61 249 0.9 3.5 0.00 0.00 0.00 51 1013.7
20260503043539 61 247 0.9 3.5 0.00 0.00 0.00 51 1013.7
20260503043423 61 243 0.9 3.5 0.00 0.00 0.00 50 1013.7
20260503043337 61 247 0.9 3.5 0.00 0.00 0.00 49 1013.7
20260503043216 61 241 0.9 3.5 0.00 0.00 0.00 49 1013.7
20260503043127 61 241 1.7 3.5 0.00 0.00 0.00 48 1013.7
20260503043021 61 241 1.7 3.5 0.00 0.00 0.00 48 1013.7
20260503042927 61 232 0.9 3.5 0.00 0.00 0.00 48 1013.7
20260503042812 61 240 0.9 3.5 0.00 0.00 0.00 48 1013.7
20260503042712 62 244 0.9 3.5 0.00 0.00 0.00 49 1013.5
20260503042645 62 244 0.9 3.5 0.00 0.00 0.00 49 1013.6
20260503042511 62 244 1.7 3.5 0.00 0.00 0.00 49 1013.6
20260503042444 62 244 1.7 3.5 0.00 0.00 0.00 49 1013.7
20260503042308 62 239 0.9 2.6 0.00 0.00 0.00 48 1013.7
20260503042214 62 237 0.0 3.5 0.00 0.00 0.00 49 1013.6
20260503042137 62 237 0.0 3.5 0.00 0.00 0.00 48 1013.6
20260503042015 62 237 0.0 3.5 0.00 0.00 0.00 48 1013.6
20260503041921 62 238 0.9 3.5 0.00 0.00 0.00 48 1013.6
20260503041827 62 238 1.7 3.5 0.00 0.00 0.00 48 1013.6
20260503041712 62 235 1.7 3.5 0.00 0.00 0.00 48 1013.5
20260503041634 62 231 1.7 3.5 0.00 0.00 0.00 48 1013.5
20260503041513 62 243 1.7 3.5 0.00 0.00 0.00 48 1013.5
20260503041419 62 228 1.7 3.5 0.00 0.00 0.00 48 1013.5
20260503041331 63 262 2.6 3.5 0.00 0.00 0.00 48 1013.5
20260503041216 63 222 2.6 3.5 0.00 0.00 0.00 47 1013.5
20260503041138 63 231 2.6 3.5 0.00 0.00 0.00 48 1013.5
20260503041012 63 235 2.6 3.5 0.00 0.00 0.00 48 1013.5
20260503040942 63 224 2.6 3.5 0.00 0.00 0.00 48 1013.4
20260503040834 62 228 2.6 3.5 0.00 0.00 0.00 48 1013.4
20260503040716 62 251 1.7 3.5 0.00 0.00 0.00 48 1013.4
20260503040639 62 232 1.7 3.5 0.00 0.00 0.00 48 1013.4
20260503040512 62 237 1.7 3.5 0.00 0.00 0.00 49 1013.4
20260503040418 62 240 1.7 3.5 0.00 0.00 0.00 49 1013.4
20260503040329 62 222 1.7 3.5 0.00 0.00 0.00 49 1013.4
20260503040232 62 233 1.7 3.5 0.00 0.00 0.00 49 1013.4
20260503040143 62 243 1.7 3.5 0.00 0.00 0.00 49 1013.4
20260503040017 62 231 0.9 3.5 0.00 0.00 0.00 50 1013.3
20260503035923 62 240 0.9 3.5 0.00 0.00 0.00 50 1013.3
20260503035808 62 249 0.9 3.5 0.00 0.00 0.00 50 1013.4
20260503035715 62 240 0.9 3.5 0.00 0.00 0.00 50 1013.4
20260503035639 62 249 0.9 3.5 0.00 0.00 0.00 50 1013.4
20260503035541 62 238 1.7 3.5 0.00 0.00 0.00 50 1013.3
20260503035445 62 228 1.7 3.5 0.00 0.00 0.00 50 1013.3
20260503035337 62 243 1.7 3.5 0.00 0.00 0.00 50 1013.3
20260503035211 62 233 1.7 3.5 0.00 0.00 0.00 50 1013.3
20260503035124 62 239 1.7 3.5 0.00 0.00 0.00 50 1013.3
20260503035021 62 228 1.7 3.5 0.00 0.00 0.00 50 1013.3
20260503034926 62 258 1.7 2.6 0.00 0.00 0.00 50 1013.3
20260503034839 62 233 1.7 2.6 0.00 0.00 0.00 50 1013.3
20260503034715 62 225 0.9 2.6 0.00 0.00 0.00 50 1013.3
20260503034645 63 244 1.7 2.6 0.00 0.00 0.00 50 1013.3
20260503034518 63 239 1.7 3.5 0.00 0.00 0.00 50 1013.3
20260503034430 63 220 0.9 3.5 0.00 0.00 0.00 50 1013.3
20260503034320 63 237 0.0 4.3 0.00 0.00 0.00 50 1013.3
20260503034216 63 239 0.9 4.3 0.00 0.00 0.00 50 1013.2
20260503034120 63 239 0.9 4.3 0.00 0.00 0.00 50 1013.2
20260503034021 63 239 0.9 4.3 0.00 0.00 0.00 50 1013.2
20260503033927 63 235 0.9 4.3 0.00 0.00 0.00 50 1013.3
20260503033817 63 235 0.9 4.3 0.00 0.00 0.00 49 1013.2
20260503033712 63 239 0.9 4.3 0.00 0.00 0.00 49 1013.2
20260503033645 63 228 1.7 4.3 0.00 0.00 0.00 49 1013.2
20260503033545 63 238 1.7 4.3 0.00 0.00 0.00 49 1013.2
20260503033410 63 244 0.9 3.5 0.00 0.00 0.00 49 1013.1
20260503033316 63 235 0.9 3.5 0.00 0.00 0.00 49 1013.2
20260503033216 63 240 0.9 3.5 0.00 0.00 0.00 49 1013.1
20260503033127 63 245 0.9 3.5 0.00 0.00 0.00 49 1013.2
20260503033022 63 231 1.7 2.6 0.00 0.00 0.00 49 1013.1
20260503032928 63 239 1.7 2.6 0.00 0.00 0.00 50 1013.1
20260503032813 63 237 0.9 2.6 0.00 0.00 0.00 49 1013.1
20260503032737 63 240 0.0 2.6 0.00 0.00 0.00 49 1013.1
20260503032631 64 240 0.0 2.6 0.00 0.00 0.00 49 1013.0
20260503032526 64 240 0.9 2.6 0.00 0.00 0.00 50 1013.1
20260503032411 64 236 0.9 2.6 0.00 0.00 0.00 49 1013.0
20260503032346 64 237 0.9 2.6 0.00 0.00 0.00 49 1013.0
20260503032230 64 232 0.9 2.6 0.00 0.00 0.00 49 1013.1
20260503032132 64 237 0.9 2.6 0.00 0.00 0.00 49 1012.9
20260503032010 64 235 0.9 1.7 0.00 0.00 0.00 49 1013.0
20260503031916 64 244 0.9 1.7 0.00 0.00 0.00 49 1013.0
20260503031822 65 243 0.9 1.7 0.00 0.00 0.00 49 1012.9
20260503031718 65 239 0.9 1.7 0.00 0.00 0.00 49 1012.9
20260503031630 65 239 0.0 1.7 0.00 0.00 0.00 49 1012.8
20260503031524 65 264 0.0 0.9 0.00 0.00 0.00 48 1012.9
20260503031420 65 264 0.0 0.9 0.00 0.00 0.00 48 1012.9
20260503031325 65 264 0.0 0.9 0.00 0.00 0.00 48 1012.8
20260503031211 65 264 0.0 0.9 0.00 0.00 0.00 47 1012.8
20260503031133 66 263 0.0 0.9 0.00 0.00 0.00 47 1012.8
20260503031027 66 264 0.0 0.9 0.00 0.00 0.00 47 1012.8
20260503030913 66 268 0.0 0.9 0.00 0.00 0.00 47 1012.7
20260503030830 66 267 0.0 0.9 0.00 0.00 0.00 47 1012.8
20260503030714 66 268 0.0 0.9 0.00 0.00 0.00 47 1012.8
20260503030636 66 267 0.0 0.9 0.00 0.00 0.00 47 1012.8
20260503030531 66 268 0.0 0.9 0.00 0.00 0.00 47 1012.8
20260503030415 67 268 0.0 0.9 0.00 0.00 0.00 47 1012.8
20260503030328 67 268 0.0 0.9 0.00 0.00 0.00 46 1012.7
20260503030218 67 268 0.0 0.9 0.00 0.00 0.00 47 1012.7
20260503030133 67 283 0.0 0.9 0.00 0.00 0.00 47 1012.8
20260503030035 67 283 0.0 0.9 0.00 0.00 0.00 47 1012.8
20260503025919 67 283 0.0 0.9 0.00 0.00 0.00 46 1012.8
20260503025825 67 293 0.0 0.0 0.00 0.00 0.00 46 1012.7
20260503025711 68 293 0.0 0.0 0.00 0.00 0.00 46 1012.7
20260503025638 68 293 0.0 0.0 0.00 0.00 0.00 46 1012.7
20260503025513 68 293 0.0 0.0 0.00 0.00 0.00 46 1012.7
20260503025418 68 293 0.0 0.0 0.00 0.00 0.00 46 1012.7
20260503025331 68 293 0.0 0.0 0.00 0.00 0.00 46 1012.6
20260503025215 68 293 0.0 0.0 0.00 0.00 0.00 46 1012.6
20260503025138 68 293 0.0 0.0 0.00 0.00 0.00 46 1012.6
20260503025037 69 293 0.0 0.0 0.00 0.00 0.00 46 1012.7
20260503024921 69 293 0.0 0.0 0.00 0.00 0.00 46 1012.6
20260503024845 69 293 0.0 0.0 0.00 0.00 0.00 46 1012.7
20260503024730 69 293 0.0 0.0 0.00 0.00 0.00 46 1012.6
20260503024656 69 293 0.0 0.0 0.00 0.00 0.00 46 1012.6
20260503024509 69 293 0.0 0.0 0.00 0.00 0.00 46 1012.6
20260503024415 69 293 0.0 0.9 0.00 0.00 0.00 46 1012.6
20260503024332 70 293 0.0 0.9 0.00 0.00 0.00 46 1012.6
20260503024236 70 293 0.0 0.9 0.00 0.00 0.00 47 1012.6
20260503024200 70 293 0.0 0.9 0.00 0.00 0.00 46 1012.6
20260503024013 70 293 0.0 0.9 0.00 0.00 0.00 47 1012.6
20260503023926 70 293 0.0 0.9 0.00 0.00 0.00 47 1012.6
20260503023811 70 293 0.0 0.9 0.00 0.00 0.00 47 1012.6
20260503023738 71 293 0.0 0.9 0.00 0.00 0.00 47 1012.5
20260503023623 71 293 0.0 0.9 0.00 0.00 0.00 46 1012.6
20260503023517 71 293 0.0 0.0 0.00 0.00 0.00 46 1012.5
20260503023422 71 293 0.0 0.0 0.00 0.00 0.00 45 1012.5
20260503023308 71 293 0.0 0.0 0.00 0.00 0.00 45 1012.6
20260503023231 71 293 0.0 0.0 0.00 0.00 0.00 45 1012.5
20260503023142 71 293 0.0 0.0 0.00 0.00 0.00 45 1012.5
20260503023021 72 293 0.0 0.0 0.00 0.00 0.00 44 1012.6
20260503022926 72 293 0.0 0.0 0.00 0.00 0.00 44 1012.5
20260503022832 72 293 0.0 0.0 0.00 0.00 0.00 44 1012.5
20260503022724 72 293 0.0 0.0 0.00 0.00 0.00 44 1012.5
20260503022630 72 293 0.0 0.0 0.00 0.00 0.00 44 1012.5
20260503022532 72 293 0.0 0.0 0.00 0.00 0.00 44 1012.5
20260503022448 72 293 0.0 0.0 0.00 0.00 0.00 44 1012.5
20260503022335 72 293 0.0 0.0 0.00 0.00 0.00 45 1012.5
20260503022210 72 293 0.0 0.0 0.00 0.00 0.00 45 1012.5
20260503022122 72 293 0.0 0.0 0.00 0.00 0.00 45 1012.5
20260503022036 73 293 0.0 0.0 0.00 0.00 0.00 44 1012.5
20260503021927 73 293 0.0 0.0 0.00 0.00 0.00 44 1012.6
20260503021812 73 293 0.0 0.9 0.00 0.00 0.00 41 1012.5
20260503021711 73 293 0.0 0.9 0.00 0.00 0.00 41 1012.5
20260503021623 73 293 0.0 0.9 0.00 0.00 0.00 40 1012.5
20260503021518 73 293 0.0 1.7 0.00 0.00 0.00 41 1012.5
20260503021420 73 293 0.0 2.6 0.00 0.00 0.00 41 1012.5
20260503021333 73 293 0.0 2.6 0.00 0.00 0.00 41 1012.5
20260503021229 73 293 0.0 2.6 0.00 0.00 0.00 41 1012.5
20260503021123 73 293 0.0 2.6 0.00 0.00 0.00 41 1012.5
20260503021017 73 293 0.0 2.6 0.00 0.00 0.00 41 1012.5
20260503020950 73 293 0.0 2.6 0.00 0.00 0.00 42 1012.5
20260503020815 73 293 0.0 2.6 0.00 0.00 0.00 42 1012.5
20260503020711 73 293 0.9 2.6 0.00 0.00 0.00 42 1012.5
20260503020643 73 293 0.9 2.6 0.00 0.00 0.00 42 1012.5
20260503020521 73 293 1.7 2.6 0.00 0.00 0.00 42 1012.5
20260503020418 73 293 1.7 2.6 0.00 0.00 0.00 43 1012.4
20260503020323 73 301 1.7 2.6 0.00 0.00 0.00 43 1012.5
20260503020209 73 298 1.7 2.6 0.00 0.00 0.00 43 1012.5
20260503020131 73 295 1.7 2.6 0.00 0.00 0.00 43 1012.4
20260503020025 73 296 1.7 2.6 0.00 0.00 0.00 43 1012.5
20260503015915 73 296 1.7 2.6 0.00 0.00 0.00 43 1012.5
20260503015829 73 296 1.7 2.6 0.00 0.00 0.00 43 1012.4
20260503015714 73 295 1.7 2.6 0.00 0.00 0.00 43 1012.4
20260503015630 73 295 1.7 2.6 0.00 0.00 0.00 43 1012.4
20260503015511 73 293 1.7 2.6 0.00 0.00 0.00 44 1012.5
20260503015416 73 293 1.7 2.6 0.00 0.00 0.00 44 1012.5
20260503015323 73 291 1.7 2.6 0.00 0.00 0.00 44 1012.5
20260503015215 73 290 1.7 2.6 0.00 0.00 0.00 44 1012.4
20260503015131 73 291 1.7 2.6 0.00 0.00 0.00 44 1012.4
20260503015033 73 291 1.7 2.6 0.00 0.00 0.00 44 1012.5
20260503014938 73 287 1.7 2.6 0.00 0.00 0.00 44 1012.5
20260503014830 73 293 1.7 2.6 0.00 0.00 0.00 44 1012.4
20260503014710 74 295 1.7 2.6 0.00 0.00 0.00 44 1012.4
20260503014635 74 296 1.7 2.6 0.00 0.00 0.00 44 1012.5
20260503014509 74 296 1.7 2.6 0.00 0.00 0.00 44 1012.4
20260503014422 74 298 1.7 2.6 0.00 0.00 0.00 44 1012.5
20260503014319 74 295 0.9 2.6 0.00 0.00 0.00 44 1012.5
20260503014214 74 301 0.9 2.6 0.00 0.00 0.00 44 1012.5
20260503014130 74 302 1.7 2.6 0.00 0.00 0.00 44 1012.5
20260503014025 74 304 0.9 2.6 0.00 0.00 0.00 44 1012.5
20260503013910 74 301 0.9 2.6 0.00 0.00 0.00 44 1012.5
20260503013816 74 316 0.9 2.6 0.00 0.00 0.00 44 1012.5
20260503013719 74 323 1.7 2.6 0.00 0.00 0.00 44 1012.5
20260503013627 74 297 0.9 2.6 0.00 0.00 0.00 44 1012.5
20260503013549 74 311 0.9 2.6 0.00 0.00 0.00 43 1012.6
20260503013413 74 320 1.7 2.6 0.00 0.00 0.00 42 1012.5
20260503013319 74 306 0.9 2.6 0.00 0.00 0.00 43 1012.6
20260503013215 74 297 0.9 2.6 0.00 0.00 0.00 43 1012.6
20260503013126 74 296 1.7 2.6 0.00 0.00 0.00 42 1012.6
20260503013032 74 292 1.7 2.6 0.00 0.00 0.00 42 1012.6
20260503012936 74 291 1.7 2.6 0.00 0.00 0.00 42 1012.6
20260503012813 74 289 1.7 2.6 0.00 0.00 0.00 42 1012.6
20260503012709 75 283 1.7 2.6 0.00 0.00 0.00 41 1012.6
20260503012640 74 306 1.7 2.6 0.00 0.00 0.00 41 1012.6
20260503012516 75 293 1.7 2.6 0.00 0.00 0.00 41 1012.6
20260503012424 75 294 1.7 2.6 0.00 0.00 0.00 42 1012.6
20260503012309 75 293 1.7 2.6 0.00 0.00 0.00 41 1012.6
20260503012215 75 301 1.7 2.6 0.00 0.00 0.00 41 1012.6
20260503012137 75 301 1.7 2.6 0.00 0.00 0.00 41 1012.6
20260503012010 75 295 1.7 2.6 0.00 0.00 0.00 41 1012.7
20260503011923 75 294 1.7 2.6 0.00 0.00 0.00 41 1012.6
20260503011832 75 305 1.7 2.6 0.00 0.00 0.00 41 1012.7
20260503011708 75 292 1.7 2.6 0.00 0.00 0.00 41 1012.7
20260503011621 75 291 1.7 2.6 0.00 0.00 0.00 41 1012.7
20260503011515 75 295 1.7 2.6 0.00 0.00 0.00 41 1012.7
20260503011428 75 285 1.7 2.6 0.00 0.00 0.00 40 1012.7
20260503011308 75 298 0.9 2.6 0.00 0.00 0.00 41 1012.7
20260503011214 75 320 1.7 2.6 0.00 0.00 0.00 40 1012.7
20260503011138 75 320 1.7 2.6 0.00 0.00 0.00 40 1012.7
20260503011032 76 304 1.7 2.6 0.00 0.00 0.00 40 1012.7
20260503010917 76 297 1.7 2.6 0.00 0.00 0.00 39 1012.7
20260503010850 76 331 1.7 3.5 0.00 0.00 0.00 39 1012.7
20260503010714 76 320 1.7 3.5 0.00 0.00 0.00 38 1012.7
20260503010703 76 335 1.7 3.5 0.00 0.00 0.00 38 1012.7
20260503010536 76 313 1.7 3.5 0.00 0.00 0.00 38 1012.7
20260503010424 76 307 1.7 3.5 0.00 0.00 0.00 39 1012.7
20260503010310 76 314 1.7 3.5 0.00 0.00 0.00 38 1012.8
20260503010215 76 333 1.7 3.5 0.00 0.00 0.00 38 1012.8
20260503010139 76 322 1.7 3.5 0.00 0.00 0.00 36 1012.7
20260503010030 76 333 2.6 3.5 0.00 0.00 0.00 36 1012.7
20260503005911 76 333 2.6 3.5 0.00 0.00 0.00 34 1012.7
20260503005816 76 341 2.6 3.5 0.00 0.00 0.00 35 1012.7
20260503005712 76 338 2.6 3.5 0.00 0.00 0.00 34 1012.7
20260503005644 76 339 1.7 3.5 0.00 0.00 0.00 34 1012.8
20260503005526 77 341 1.7 4.3 0.00 0.00 0.00 34 1012.7
20260503005414 77 340 2.6 4.3 0.00 0.00 0.00 36 1012.7
20260503005341 77 335 2.6 4.3 0.00 0.00 0.00 33 1012.8
20260503005233 77 349 2.6 4.3 0.00 0.00 0.00 34 1012.7
20260503005128 77 354 2.6 4.3 0.00 0.00 0.00 34 1012.8
20260503005030 77 344 2.6 4.3 0.00 0.00 0.00 35 1012.8
20260503004915 77 347 2.6 4.3 0.00 0.00 0.00 34 1012.8
20260503004821 77 4 2.6 4.3 0.00 0.00 0.00 34 1012.9
20260503004717 77 344 2.6 4.3 0.00 0.00 0.00 36 1012.9
20260503004649 77 338 2.6 4.3 0.00 0.00 0.00 35 1012.9
20260503004550 77 324 1.7 4.3 0.00 0.00 0.00 37 1012.9
20260503004415 77 345 2.6 4.3 0.00 0.00 0.00 36 1012.8
20260503004342 77 344 2.6 4.3 0.00 0.00 0.00 37 1012.8
20260503004217 77 339 2.6 4.3 0.00 0.00 0.00 36 1012.8
20260503004150 77 354 2.6 4.3 0.00 0.00 0.00 36 1012.9
20260503004024 77 354 2.6 4.3 0.00 0.00 0.00 36 1012.8
20260503003958 77 331 2.6 4.3 0.00 0.00 0.00 35 1012.8
20260503003813 77 337 2.6 4.3 0.00 0.00 0.00 35 1012.8
20260503003709 77 330 2.6 3.5 0.00 0.00 0.00 35 1012.8
20260503003640 77 337 2.6 3.5 0.00 0.00 0.00 35 1012.8
20260503003515 77 344 2.6 4.3 0.00 0.00 0.00 34 1012.8
20260503003420 77 335 2.6 4.3 0.00 0.00 0.00 33 1012.8
20260503003336 77 337 2.6 4.3 0.00 0.00 0.00 35 1012.9
20260503003211 77 14 2.6 4.3 0.00 0.00 0.00 35 1012.9
20260503003144 77 354 2.6 4.3 0.00 0.00 0.00 35 1012.9
20260503003018 78 332 2.6 5.2 0.00 0.00 0.00 34 1012.8
20260503002944 78 326 3.5 5.2 0.00 0.00 0.00 35 1012.8
20260503002836 78 343 3.5 5.2 0.00 0.00 0.00 34 1012.9
20260503002724 78 333 3.5 5.2 0.00 0.00 0.00 34 1012.9
20260503002708 78 332 3.5 5.2 0.00 0.00 0.00 33 1012.9
20260503002511 78 322 3.5 5.2 0.00 0.00 0.00 31 1013.0
20260503002445 78 344 3.5 5.2 0.00 0.00 0.00 31 1012.8
20260503002313 78 343 3.5 5.2 0.00 0.00 0.00 31 1012.8
20260503002238 78 354 3.5 5.2 0.00 0.00 0.00 32 1012.9
20260503002128 78 350 2.6 5.2 0.00 0.00 0.00 32 1012.8
20260503002026 78 359 2.6 5.2 0.00 0.00 0.00 33 1012.9
20260503001932 78 339 3.5 5.2 0.00 0.00 0.00 32 1012.8
20260503001824 78 332 3.5 4.3 0.00 0.00 0.00 31 1012.8
20260503001710 78 338 2.6 4.3 0.00 0.00 0.00 31 1012.9
20260503001625 78 350 2.6 4.3 0.00 0.00 0.00 32 1012.9
20260503001547 78 20 1.7 3.5 0.00 0.00 0.00 31 1012.8
20260503001435 79 359 1.7 3.5 0.00 0.00 0.00 31 1012.9
20260503001327 79 354 1.7 3.5 0.00 0.00 0.00 32 1013.0
20260503001213 79 359 1.7 3.5 0.00 0.00 0.00 32 1012.9
20260503001145 79 349 1.7 3.5 0.00 0.00 0.00 31 1012.9
20260503001020 79 340 1.7 3.5 0.00 0.00 0.00 34 1012.9
20260503000925 79 339 2.6 3.5 0.00 0.00 0.00 33 1012.8
20260503000836 79 330 2.6 3.5 0.00 0.00 0.00 32 1013.0
20260503000711 79 337 2.6 3.5 0.00 0.00 0.00 31 1012.9
20260503000621 79 337 1.7 3.5 0.00 0.00 0.00 31 1012.9
20260503000543 79 345 1.7 3.5 0.00 0.00 0.00 29 1013.0
20260503000456 79 354 0.9 3.5 0.00 0.00 0.00 28 1013.0
20260503000312 79 9 1.7 3.5 0.00 0.00 0.00 28 1012.9
20260503000218 79 354 1.7 3.5 0.00 0.00 0.00 28 1013.0
20260503000123 79 18 1.7 3.5 0.00 0.00 0.00 28 1013.0
20260503000045 79 354 1.7 4.3 0.00 0.00 0.00 29 1012.9
20260502235909 79 339 1.7 4.3 0.00 0.00 0.00 28 1013.0
20260502235815 79 348 1.7 4.3 0.00 0.00 0.00 29 1013.0
20260502235710 79 13 1.7 4.3 0.00 0.00 0.00 28 1013.0
20260502235626 79 10 1.7 4.3 0.00 0.00 0.00 28 1012.9
20260502235545 79 354 1.7 4.3 0.00 0.00 0.00 27 1012.9
20260502235409 79 35 1.7 5.2 0.00 0.00 0.00 28 1013.0
20260502235315 79 16 2.6 5.2 0.00 0.00 0.00 28 1013.0
20260502235218 80 4 2.6 5.2 0.00 0.00 0.00 28 1012.9
20260502235120 80 14 2.6 5.2 0.00 0.00 0.00 27 1012.9
20260502235014 80 11 2.6 5.2 0.00 0.00 0.00 27 1012.9
20260502234931 80 4 2.6 5.2 0.00 0.00 0.00 28 1013.0
20260502234817 80 354 2.6 5.2 0.00 0.00 0.00 27 1013.0
20260502234709 80 21 3.5 7.0 0.00 0.00 0.00 27 1013.0
20260502234641 80 18 3.5 7.0 0.00 0.00 0.00 27 1013.0
20260502234515 80 15 2.6 7.0 0.00 0.00 0.00 28 1013.0
20260502234421 80 20 1.7 7.0 0.00 0.00 0.00 27 1013.0
20260502234338 80 19 2.6 7.0 0.00 0.00 0.00 27 1013.0
20260502234220 80 23 2.6 7.0 0.00 0.00 0.00 28 1013.0
20260502234136 80 41 2.6 7.0 0.00 0.00 0.00 27 1013.0
20260502234010 80 8 2.6 7.0 0.00 0.00 0.00 28 1013.0
20260502233922 80 347 2.6 7.0 0.00 0.00 0.00 28 1013.0
20260502233812 80 11 1.7 7.0 0.00 0.00 0.00 27 1013.1
20260502233718 80 23 1.7 7.0 0.00 0.00 0.00 27 1013.1
20260502233702 80 19 1.7 7.0 0.00 0.00 0.00 27 1013.1
20260502233515 80 13 1.7 7.0 0.00 0.00 0.00 26 1013.1
20260502233421 80 4 1.7 7.0 0.00 0.00 0.00 27 1013.1
20260502233326 80 4 1.7 7.0 0.00 0.00 0.00 27 1013.2
20260502233234 80 12 2.6 7.0 0.00 0.00 0.00 28 1013.1
20260502233147 80 354 2.6 7.0 0.00 0.00 0.00 28 1013.1
20260502233013 80 17 2.6 7.0 0.00 0.00 0.00 28 1013.1
20260502232926 80 359 2.6 7.0 0.00 0.00 0.00 28 1013.1
20260502232811 80 18 2.6 7.0 0.00 0.00 0.00 27 1013.2
20260502232709 80 354 2.6 7.0 0.00 0.00 0.00 28 1013.1
20260502232641 80 4 2.6 7.0 0.00 0.00 0.00 28 1013.1
20260502232536 80 12 2.6 7.0 0.00 0.00 0.00 28 1013.1
20260502232420 80 12 2.6 7.0 0.00 0.00 0.00 31 1013.1
20260502232333 80 18 2.6 7.0 0.00 0.00 0.00 30 1013.1
20260502232218 80 25 2.6 7.0 0.00 0.00 0.00 28 1013.1
20260502232140 80 16 2.6 7.0 0.00 0.00 0.00 30 1013.1
20260502232018 80 26 2.6 7.0 0.00 0.00 0.00 28 1013.2
20260502231924 80 13 1.7 7.0 0.00 0.00 0.00 27 1013.2
20260502231809 80 17 1.7 7.0 0.00 0.00 0.00 26 1013.2
20260502231715 80 12 1.7 7.0 0.00 0.00 0.00 27 1013.1
20260502231638 80 15 1.7 7.0 0.00 0.00 0.00 28 1013.1
20260502231532 79 14 1.7 7.0 0.00 0.00 0.00 27 1013.2
20260502231440 79 26 2.6 7.0 0.00 0.00 0.00 27 1013.2
20260502231344 79 4 2.6 7.0 0.00 0.00 0.00 27 1013.2
20260502231218 79 18 2.6 7.0 0.00 0.00 0.00 27 1013.2
20260502231129 79 14 1.7 5.2 0.00 0.00 0.00 27 1013.2
20260502231030 79 25 2.6 5.2 0.00 0.00 0.00 28 1013.2
20260502230936 79 50 2.6 5.2 0.00 0.00 0.00 28 1013.2
20260502230820 79 29 1.7 6.1 0.00 0.00 0.00 27 1013.2
20260502230710 79 23 1.7 6.1 0.00 0.00 0.00 26 1013.2
20260502230632 79 20 2.6 6.1 0.00 0.00 0.00 28 1013.2
20260502230533 79 41 2.6 6.1 0.00 0.00 0.00 30 1013.3
20260502230419 79 23 1.7 6.1 0.00 0.00 0.00 26 1013.2
20260502230341 79 10 2.6 6.1 0.00 0.00 0.00 27 1013.2
20260502230231 79 14 2.6 6.1 0.00 0.00 0.00 28 1013.2
20260502230153 79 29 3.5 6.1 0.00 0.00 0.00 31 1013.2
20260502230025 79 27 3.5 6.1 0.00 0.00 0.00 34 1013.3
20260502225910 79 52 3.5 7.0 0.00 0.00 0.00 32 1013.2
20260502225816 79 39 2.6 7.8 0.00 0.00 0.00 31 1013.2
20260502225722 79 52 2.6 7.8 0.00 0.00 0.00 29 1013.3
20260502225636 79 11 2.6 7.8 0.00 0.00 0.00 28 1013.3
20260502225515 79 43 1.7 7.8 0.00 0.00 0.00 26 1013.3
20260502225420 79 14 1.7 7.8 0.00 0.00 0.00 26 1013.3
20260502225333 79 24 1.7 7.8 0.00 0.00 0.00 26 1013.3
20260502225219 79 33 2.6 7.8 0.00 0.00 0.00 27 1013.3
20260502225134 79 18 3.5 7.8 0.00 0.00 0.00 27 1013.3
20260502225012 79 39 3.5 8.7 0.00 0.00 0.00 30 1013.3
20260502224917 79 22 2.6 9.6 0.00 0.00 0.00 28 1013.3
20260502224823 79 21 2.6 9.6 0.00 0.00 0.00 29 1013.3
20260502224719 79 27 2.6 9.6 0.00 0.00 0.00 28 1013.3
20260502224629 79 23 3.5 9.6 0.00 0.00 0.00 29 1013.3
20260502224544 79 20 3.5 9.6 0.00 0.00 0.00 30 1013.3
20260502224413 79 56 3.5 9.6 0.00 0.00 0.00 30 1013.3
20260502224326 79 38 5.2 9.6 0.00 0.00 0.00 30 1013.3
20260502224212 80 41 6.1 9.6 0.00 0.00 0.00 29 1013.4
20260502224145 80 43 4.3 9.6 0.00 0.00 0.00 29 1013.3
20260502224019 80 22 2.6 8.7 0.00 0.00 0.00 27 1013.4
20260502223925 80 17 1.7 8.7 0.00 0.00 0.00 29 1013.3
20260502223838 80 21 1.7 8.7 0.00 0.00 0.00 28 1013.3
20260502223718 80 28 4.3 8.7 0.00 0.00 0.00 28 1013.3
20260502223634 80 14 4.3 8.7 0.00 0.00 0.00 31 1013.4
20260502223512 80 50 3.5 8.7 0.00 0.00 0.00 27 1013.4
20260502223417 80 33 2.6 8.7 0.00 0.00 0.00 27 1013.3
20260502223314 80 23 1.7 8.7 0.00 0.00 0.00 25 1013.4
20260502223215 80 13 1.7 8.7 0.00 0.00 0.00 26 1013.5
20260502223125 80 25 1.7 8.7 0.00 0.00 0.00 26 1013.5
20260502223020 80 29 2.6 8.7 0.00 0.00 0.00 25 1013.6
20260502222933 80 4 3.5 8.7 0.00 0.00 0.00 26 1013.5
20260502222830 80 53 4.3 8.7 0.00 0.00 0.00 29 1013.5
20260502222717 80 55 3.5 7.8 0.00 0.00 0.00 28 1013.6
20260502222633 80 25 2.6 7.8 0.00 0.00 0.00 27 1013.5
20260502222528 80 53 2.6 7.8 0.00 0.00 0.00 27 1013.7
20260502222440 80 9 2.6 7.8 0.00 0.00 0.00 26 1013.6
20260502222317 80 27 2.6 7.8 0.00 0.00 0.00 28 1013.7
20260502222212 80 21 3.5 7.8 0.00 0.00 0.00 29 1013.7
20260502222123 79 27 3.5 7.8 0.00 0.00 0.00 31 1013.7
20260502222022 79 35 2.6 7.0 0.00 0.00 0.00 29 1013.8
20260502221915 79 25 2.6 7.0 0.00 0.00 0.00 29 1013.8
20260502221820 79 4 1.7 7.0 0.00 0.00 0.00 27 1013.8
20260502221714 79 16 1.7 7.0 0.00 0.00 0.00 28 1013.8
20260502221626 79 14 3.5 7.8 0.00 0.00 0.00 26 1013.8
20260502221542 79 28 4.3 8.7 0.00 0.00 0.00 27 1013.8
20260502221410 79 34 2.6 8.7 0.00 0.00 0.00 27 1013.8
20260502221323 79 15 2.6 8.7 0.00 0.00 0.00 26 1013.8
20260502221209 79 35 3.5 8.7 0.00 0.00 0.00 28 1013.8
20260502221125 79 35 2.6 9.6 0.00 0.00 0.00 28 1013.8
20260502221026 79 42 3.5 9.6 0.00 0.00 0.00 28 1013.8
20260502220912 79 16 5.2 9.6 0.00 0.00 0.00 30 1013.9
20260502220822 79 56 5.2 9.6 0.00 0.00 0.00 31 1013.9
20260502220718 79 40 4.3 9.6 0.00 0.00 0.00 30 1013.9
20260502220651 79 56 4.3 9.6 0.00 0.00 0.00 32 1013.9
20260502220524 79 21 5.2 9.6 0.00 0.00 0.00 29 1013.9
20260502220410 79 45 5.2 9.6 0.00 0.00 0.00 26 1013.9
20260502220322 79 41 4.3 9.6 0.00 0.00 0.00 30 1013.9
20260502220232 79 359 3.5 9.6 0.00 0.00 0.00 30 1013.9
20260502220134 79 44 3.5 9.6 0.00 0.00 0.00 28 1013.9
20260502220009 79 24 3.5 9.6 0.00 0.00 0.00 30 1014.0
20260502215926 79 16 3.5 9.6 0.00 0.00 0.00 30 1013.9
20260502215811 79 8 5.2 9.6 0.00 0.00 0.00 28 1013.9
20260502215717 79 41 6.1 9.6 0.00 0.00 0.00 30 1014.0
20260502215705 79 45 5.2 9.6 0.00 0.00 0.00 31 1014.0
20260502215510 79 28 2.6 8.7 0.00 0.00 0.00 30 1014.0
20260502215442 79 13 3.5 8.7 0.00 0.00 0.00 29 1014.0
20260502215327 79 8 4.3 8.7 0.00 0.00 0.00 29 1014.0
20260502215212 79 41 3.5 7.8 0.00 0.00 0.00 28 1014.0
20260502215135 79 33 3.5 7.8 0.00 0.00 0.00 26 1014.0
20260502215013 79 48 4.3 8.7 0.00 0.00 0.00 31 1014.0
20260502214926 79 36 3.5 8.7 0.00 0.00 0.00 30 1014.0
20260502214812 78 29 3.5 8.7 0.00 0.00 0.00 24 1014.0
20260502214716 78 33 3.5 8.7 0.00 0.00 0.00 27 1014.0
20260502214632 78 4 3.5 8.7 0.00 0.00 0.00 28 1014.1
20260502214534 78 346 4.3 10.4 0.00 0.00 0.00 28 1014.0
20260502214423 78 56 4.3 10.4 0.00 0.00 0.00 30 1014.1
20260502214330 78 38 4.3 10.4 0.00 0.00 0.00 29 1014.1
20260502214223 78 27 4.3 10.4 0.00 0.00 0.00 30 1014.2
20260502214147 78 23 3.5 10.4 0.00 0.00 0.00 30 1014.2
20260502214020 78 39 4.3 10.4 0.00 0.00 0.00 29 1014.2
20260502213933 78 64 5.2 10.4 0.00 0.00 0.00 28 1014.2
20260502213823 78 52 7.0 10.4 0.00 0.00 0.00 28 1014.2
20260502213719 78 47 6.1 10.4 0.00 0.00 0.00 30 1014.3
20260502213629 78 48 6.1 10.4 0.00 0.00 0.00 27 1014.3
20260502213545 78 72 4.3 10.4 0.00 0.00 0.00 27 1014.3
20260502213428 78 49 2.6 10.4 0.00 0.00 0.00 27 1014.3
20260502213314 78 35 0.9 10.4 0.00 0.00 0.00 27 1014.3
20260502213212 78 348 0.9 10.4 0.00 0.00 0.00 26 1014.3
20260502213144 78 349 1.7 10.4 0.00 0.00 0.00 25 1014.3
20260502213040 78 52 3.5 10.4 0.00 0.00 0.00 26 1014.4
20260502212925 78 40 4.3 10.4 0.00 0.00 0.00 29 1014.4
20260502212810 78 37 5.2 10.4 0.00 0.00 0.00 28 1014.4
20260502212710 78 48 7.8 10.4 0.00 0.00 0.00 27 1014.4
20260502212642 78 56 7.8 10.4 0.00 0.00 0.00 27 1014.4
20260502212524 78 43 5.2 10.4 0.00 0.00 0.00 29 1014.4
20260502212449 78 42 3.5 10.4 0.00 0.00 0.00 31 1014.3
20260502212313 78 112 2.6 8.7 0.00 0.00 0.00 29 1014.4
20260502212236 78 110 2.6 8.7 0.00 0.00 0.00 32 1014.4
20260502212120 78 109 2.6 8.7 0.00 0.00 0.00 30 1014.4
20260502212026 78 73 3.5 8.7 0.00 0.00 0.00 28 1014.5
20260502211911 78 59 4.3 8.7 0.00 0.00 0.00 28 1014.5
20260502211843 78 65 4.3 8.7 0.00 0.00 0.00 30 1014.5
20260502211709 78 98 2.6 9.6 0.00 0.00 0.00 30 1014.5
20260502211620 78 95 1.7 9.6 0.00 0.00 0.00 27 1014.5
20260502211514 78 88 3.5 9.6 0.00 0.00 0.00 25 1014.6
20260502211420 78 89 4.3 9.6 0.00 0.00 0.00 31 1014.6
20260502211310 78 91 3.5 9.6 0.00 0.00 0.00 27 1014.6
20260502211223 78 62 3.5 10.4 0.00 0.00 0.00 28 1014.6
20260502211138 78 54 3.5 10.4 0.00 0.00 0.00 28 1014.6
20260502211011 78 43 4.3 10.4 0.00 0.00 0.00 26 1014.7
20260502210924 78 23 5.2 10.4 0.00 0.00 0.00 29 1014.7
20260502210814 78 75 6.1 10.4 0.00 0.00 0.00 29 1014.7
20260502210731 78 64 6.1 10.4 0.00 0.00 0.00 29 1014.7
20260502210621 78 75 6.1 10.4 0.00 0.00 0.00 28 1014.7
20260502210515 77 85 7.0 10.4 0.00 0.00 0.00 27 1014.7
20260502210428 77 78 7.8 10.4 0.00 0.00 0.00 28 1014.7
20260502210314 77 73 5.2 8.7 0.00 0.00 0.00 31 1014.7
20260502210214 77 37 4.3 7.8 0.00 0.00 0.00 32 1014.7
20260502210124 77 58 3.5 8.7 0.00 0.00 0.00 30 1014.7
20260502210019 77 167 3.5 8.7 0.00 0.00 0.00 32 1014.7
20260502205925 77 125 2.6 8.7 0.00 0.00 0.00 29 1014.7
20260502205810 77 145 3.5 8.7 0.00 0.00 0.00 27 1014.7
20260502205744 77 37 3.5 8.7 0.00 0.00 0.00 32 1014.8
20260502205640 77 56 2.6 8.7 0.00 0.00 0.00 30 1014.8
20260502205536 77 40 3.5 8.7 0.00 0.00 0.00 28 1014.8
20260502205421 77 38 5.2 8.7 0.00 0.00 0.00 29 1014.8
20260502205327 77 18 5.2 9.6 0.00 0.00 0.00 29 1014.8
20260502205212 77 39 3.5 9.6 0.00 0.00 0.00 27 1014.7
20260502205155 77 22 3.5 9.6 0.00 0.00 0.00 30 1014.8
20260502205028 77 14 2.6 9.6 0.00 0.00 0.00 28 1014.8
20260502204908 77 16 3.5 9.6 0.00 0.00 0.00 28 1014.9
20260502204814 77 23 5.2 9.6 0.00 0.00 0.00 29 1014.9
20260502204711 77 36 5.2 9.6 0.00 0.00 0.00 31 1015.0
20260502204622 77 62 6.1 9.6 0.00 0.00 0.00 29 1015.0
20260502204536 77 48 7.0 9.6 0.00 0.00 0.00 32 1015.0
20260502204428 77 52 5.2 9.6 0.00 0.00 0.00 33 1015.0
20260502204318 77 48 4.3 9.6 0.00 0.00 0.00 31 1015.0
20260502204213 77 345 3.5 9.6 0.00 0.00 0.00 32 1015.0
20260502204124 77 25 2.6 6.1 0.00 0.00 0.00 29 1015.1
20260502204019 77 4 1.7 4.3 0.00 0.00 0.00 28 1015.0
20260502203921 77 37 1.7 5.2 0.00 0.00 0.00 28 1015.1
20260502203810 77 11 2.6 5.2 0.00 0.00 0.00 28 1015.1
20260502203724 76 16 2.6 5.2 0.00 0.00 0.00 30 1015.1
20260502203639 76 359 1.7 5.2 0.00 0.00 0.00 30 1015.1
20260502203509 76 43 1.7 7.0 0.00 0.00 0.00 29 1015.1
20260502203416 76 10 2.6 7.8 0.00 0.00 0.00 31 1015.2
20260502203328 76 66 2.6 7.8 0.00 0.00 0.00 31 1015.1
20260502203239 76 31 3.5 7.8 0.00 0.00 0.00 29 1015.1
20260502203141 76 15 2.6 7.8 0.00 0.00 0.00 31 1015.1
20260502203014 76 39 1.7 8.7 0.00 0.00 0.00 32 1015.1
20260502202928 76 43 0.9 8.7 0.00 0.00 0.00 30 1015.1
20260502202830 76 345 1.7 8.7 0.00 0.00 0.00 29 1015.1
20260502202738 76 21 4.3 8.7 0.00 0.00 0.00 29 1015.1
20260502202649 76 37 4.3 8.7 0.00 0.00 0.00 29 1015.1
20260502202534 76 34 4.3 8.7 0.00 0.00 0.00 31 1015.1
20260502202419 76 52 4.3 8.7 0.00 0.00 0.00 31 1015.1
20260502202324 76 51 4.3 10.4 0.00 0.00 0.00 30 1015.1
20260502202211 76 36 5.2 10.4 0.00 0.00 0.00 30 1015.2
20260502202122 76 13 5.2 10.4 0.00 0.00 0.00 31 1015.1
20260502202020 76 36 4.3 10.4 0.00 0.00 0.00 32 1015.2
20260502201926 76 33 4.3 10.4 0.00 0.00 0.00 31 1015.2
20260502201839 76 37 4.3 10.4 0.00 0.00 0.00 32 1015.2
20260502201714 76 24 4.3 10.4 0.00 0.00 0.00 32 1015.2
20260502201645 76 28 5.2 10.4 0.00 0.00 0.00 33 1015.2
20260502201520 76 64 7.0 10.4 0.00 0.00 0.00 32 1015.3
20260502201427 76 41 6.1 8.7 0.00 0.00 0.00 33 1015.3
20260502201312 76 20 3.5 8.7 0.00 0.00 0.00 35 1015.2
20260502201209 75 37 2.6 8.7 0.00 0.00 0.00 32 1015.2
20260502201120 75 10 2.6 8.7 0.00 0.00 0.00 31 1015.2
20260502201014 75 34 2.6 8.7 0.00 0.00 0.00 31 1015.3
20260502200921 75 8 2.6 8.7 0.00 0.00 0.00 31 1015.3
20260502200810 75 26 4.3 8.7 0.00 0.00 0.00 34 1015.3
20260502200733 75 51 3.5 8.7 0.00 0.00 0.00 33 1015.3
20260502200623 75 9 2.6 7.8 0.00 0.00 0.00 30 1015.4
20260502200517 75 350 2.6 11.3 0.00 0.00 0.00 31 1015.3
20260502200431 75 16 1.7 11.3 0.00 0.00 0.00 34 1015.4
20260502200316 75 10 1.7 11.3 0.00 0.00 0.00 32 1015.4
20260502200215 75 27 2.6 11.3 0.00 0.00 0.00 32 1015.5
20260502200126 75 17 2.6 11.3 0.00 0.00 0.00 30 1015.5
20260502200019 75 332 3.5 11.3 0.00 0.00 0.00 33 1015.5
20260502195925 75 34 3.5 11.3 0.00 0.00 0.00 32 1015.5
20260502195811 75 9 6.1 11.3 0.00 0.00 0.00 32 1015.5
20260502195715 75 43 7.0 11.3 0.00 0.00 0.00 36 1015.5
20260502195619 75 15 6.1 9.6 0.00 0.00 0.00 35 1015.6
20260502195522 75 36 4.3 9.6 0.00 0.00 0.00 34 1015.6
20260502195447 75 52 2.6 8.7 0.00 0.00 0.00 33 1015.5
20260502195311 75 43 2.6 8.7 0.00 0.00 0.00 32 1015.6
20260502195235 75 37 4.3 8.7 0.00 0.00 0.00 32 1015.6
20260502195146 75 68 5.2 8.7 0.00 0.00 0.00 32 1015.6
20260502195024 75 52 3.5 8.7 0.00 0.00 0.00 34 1015.6
20260502194921 75 12 2.6 6.1 0.00 0.00 0.00 33 1015.6
20260502194826 75 28 2.6 6.1 0.00 0.00 0.00 31 1015.6
20260502194714 74 25 1.7 6.1 0.00 0.00 0.00 30 1015.6
20260502194622 74 359 2.6 6.1 0.00 0.00 0.00 30 1015.6
20260502194516 74 338 2.6 7.0 0.00 0.00 0.00 32 1015.6
20260502194434 74 47 2.6 7.0 0.00 0.00 0.00 32 1015.6
20260502194319 74 4 2.6 7.8 0.00 0.00 0.00 33 1015.7
20260502194215 74 56 2.6 7.8 0.00 0.00 0.00 32 1015.7
20260502194138 74 67 3.5 7.8 0.00 0.00 0.00 30 1015.7
20260502194043 74 43 3.5 7.8 0.00 0.00 0.00 30 1015.7
20260502193936 74 36 2.6 7.8 0.00 0.00 0.00 37 1015.7
20260502193821 74 68 3.5 7.8 0.00 0.00 0.00 34 1015.8
20260502193710 74 144 4.3 7.8 0.00 0.00 0.00 31 1015.8
20260502193634 74 105 5.2 7.8 0.00 0.00 0.00 38 1015.8
20260502193528 73 72 3.5 6.1 0.00 0.00 0.00 33 1015.8
20260502193434 73 47 1.7 6.1 0.00 0.00 0.00 33 1015.8
20260502193346 73 21 1.7 6.1 0.00 0.00 0.00 37 1015.9
20260502193210 73 43 1.7 6.1 0.00 0.00 0.00 35 1015.9
20260502193137 73 43 1.7 6.1 0.00 0.00 0.00 36 1015.9
20260502193051 73 303 2.6 6.1 0.00 0.00 0.00 33 1015.8
20260502193021 73 303 2.6 6.1 0.00 0.00 0.00 33 1015.8
20260502192934 73 289 1.7 6.1 0.00 0.00 0.00 35 1015.9
20260502192818 73 343 1.7 5.2 0.00 0.00 0.00 37 1015.8
20260502192724 73 341 1.7 5.2 0.00 0.00 0.00 36 1015.9
20260502192637 72 314 1.7 5.2 0.00 0.00 0.00 36 1015.9
20260502192516 72 332 2.6 5.2 0.00 0.00 0.00 36 1016.0
20260502192418 72 43 1.7 5.2 0.00 0.00 0.00 35 1016.0
20260502192324 72 33 1.7 5.2 0.00 0.00 0.00 36 1016.0
20260502192209 72 21 0.9 5.2 0.00 0.00 0.00 36 1016.0
20260502192133 72 36 1.7 5.2 0.00 0.00 0.00 36 1016.0
20260502192019 72 345 2.6 5.2 0.00 0.00 0.00 35 1016.1
20260502191908 72 42 1.7 5.2 0.00 0.00 0.00 34 1016.2
20260502191820 72 4 1.7 3.5 0.00 0.00 0.00 34 1016.2
20260502191716 72 345 1.7 3.5 0.00 0.00 0.00 35 1016.2
20260502191627 72 354 0.9 3.5 0.00 0.00 0.00 37 1016.2
20260502191521 72 354 0.9 2.6 0.00 0.00 0.00 36 1016.3
20260502191455 72 39 1.7 2.6 0.00 0.00 0.00 37 1016.2
20260502191344 71 46 1.7 3.5 0.00 0.00 0.00 36 1016.2
20260502191208 71 32 0.9 4.3 0.00 0.00 0.00 37 1016.2
20260502191131 71 54 0.9 7.0 0.00 0.00 0.00 34 1016.3
20260502191025 71 46 0.9 7.0 0.00 0.00 0.00 39 1016.3
20260502190910 71 354 0.9 7.0 0.00 0.00 0.00 41 1016.2
20260502190822 71 4 0.9 7.0 0.00 0.00 0.00 41 1016.3
20260502190732 71 4 1.7 7.0 0.00 0.00 0.00 38 1016.2
20260502190655 71 337 1.7 7.0 0.00 0.00 0.00 39 1016.3
20260502190520 71 294 2.6 7.0 0.00 0.00 0.00 38 1016.3
20260502190433 71 343 3.5 7.0 0.00 0.00 0.00 39 1016.3
20260502190311 71 292 2.6 7.0 0.00 0.00 0.00 39 1016.3
20260502190244 70 337 2.6 6.1 0.00 0.00 0.00 39 1016.3
20260502190136 70 305 2.6 6.1 0.00 0.00 0.00 38 1016.3
20260502190014 70 332 2.6 6.1 0.00 0.00 0.00 39 1016.3
20260502185920 70 322 1.7 6.1 0.00 0.00 0.00 39 1016.3
20260502185825 70 298 1.7 6.1 0.00 0.00 0.00 39 1016.4
20260502185729 70 320 2.6 6.1 0.00 0.00 0.00 40 1016.5
20260502185641 70 291 2.6 6.1 0.00 0.00 0.00 40 1016.5
20260502185535 70 285 2.6 5.2 0.00 0.00 0.00 39 1016.5
20260502185444 70 276 2.6 5.2 0.00 0.00 0.00 38 1016.4
20260502185309 69 330 2.6 5.2 0.00 0.00 0.00 41 1016.5
20260502185233 69 303 2.6 5.2 0.00 0.00 0.00 42 1016.4
20260502185144 69 297 1.7 4.3 0.00 0.00 0.00 43 1016.4
20260502185017 69 316 1.7 4.3 0.00 0.00 0.00 41 1016.5
20260502184923 69 286 1.7 4.3 0.00 0.00 0.00 49 1016.5
20260502184813 68 303 2.6 4.3 0.00 0.00 0.00 45 1016.5
20260502184737 68 314 2.6 4.3 0.00 0.00 0.00 41 1016.5
20260502184620 68 309 1.7 4.3 0.00 0.00 0.00 44 1016.6
20260502184521 68 293 1.7 4.3 0.00 0.00 0.00 44 1016.6
20260502184427 68 296 0.9 4.3 0.00 0.00 0.00 46 1016.7
20260502184313 68 334 0.9 4.3 0.00 0.00 0.00 46 1016.6
20260502184212 67 349 1.7 4.3 0.00 0.00 0.00 47 1016.6
20260502184145 67 319 2.6 4.3 0.00 0.00 0.00 43 1016.6
20260502184010 67 258 1.7 3.5 0.00 0.00 0.00 43 1016.7
20260502183916 67 339 1.7 3.5 0.00 0.00 0.00 44 1016.7
20260502183829 67 345 1.7 3.5 0.00 0.00 0.00 44 1016.7
20260502183735 67 324 1.7 3.5 0.00 0.00 0.00 45 1016.7
20260502183640 67 329 1.7 3.5 0.00 0.00 0.00 45 1016.7
20260502183534 66 289 2.6 3.5 0.00 0.00 0.00 44 1016.7
20260502183419 66 309 1.7 3.5 0.00 0.00 0.00 43 1016.9
20260502183332 66 308 1.7 3.5 0.00 0.00 0.00 46 1016.9
20260502183154 66 318 0.9 3.5 0.00 0.00 0.00 42 1016.8
20260502183019 66 318 1.7 3.5 0.00 0.00 0.00 43 1016.9
20260502182924 66 322 1.7 3.5 0.00 0.00 0.00 44 1016.9
20260502182809 66 318 1.7 3.5 0.00 0.00 0.00 43 1016.8
20260502182638 66 295 0.9 2.6 0.00 0.00 0.00 42 1016.9
20260502182533 66 25 0.0 1.7 0.00 0.00 0.00 43 1017.1
20260502182444 66 24 0.9 1.7 0.00 0.00 0.00 39 1017.0
20260502182313 66 25 0.9 1.7 0.00 0.00 0.00 38 1017.0
20260502182218 66 24 0.9 1.7 0.00 0.00 0.00 38 1017.1
20260502182133 66 25 0.9 1.7 0.00 0.00 0.00 38 1017.1
20260502182027 66 24 0.9 2.6 0.00 0.00 0.00 38 1017.1
20260502181914 66 25 0.9 3.5 0.00 0.00 0.00 39 1017.1
20260502181844 66 24 0.0 3.5 0.00 0.00 0.00 39 1017.1
20260502181712 66 94 0.0 3.5 0.00 0.00 0.00 39 1017.1
20260502181628 66 94 0.9 3.5 0.00 0.00 0.00 39 1017.1
20260502181530 66 95 0.0 3.5 0.00 0.00 0.00 41 1017.1
20260502181415 66 95 0.9 3.5 0.00 0.00 0.00 43 1017.1
20260502181321 66 70 0.9 3.5 0.00 0.00 0.00 41 1017.1
20260502181222 66 93 1.7 3.5 0.00 0.00 0.00 44 1017.1
20260502181146 66 112 1.7 3.5 0.00 0.00 0.00 42 1017.1
20260502181020 66 114 0.9 2.6 0.00 0.00 0.00 45 1017.1
20260502180933 66 37 0.9 2.6 0.00 0.00 0.00 44 1017.2
20260502180838 66 37 0.9 3.5 0.00 0.00 0.00 46 1017.2
20260502180712 66 64 0.9 3.5 0.00 0.00 0.00 48 1017.2
20260502180628 65 62 0.9 3.5 0.00 0.00 0.00 47 1017.2
20260502180523 65 341 0.9 3.5 0.00 0.00 0.00 48 1017.2
20260502180427 65 359 0.9 3.5 0.00 0.00 0.00 48 1017.1
20260502180313 65 281 0.9 3.5 0.00 0.00 0.00 52 1017.1
20260502180217 65 224 1.7 3.5 0.00 0.00 0.00 45 1017.2
20260502180141 65 224 1.7 3.5 0.00 0.00 0.00 45 1017.2
20260502170512 61 13 0.9 3.5 0.00 0.00 0.00 56 1017.8
20260502170417 61 66 1.7 3.5 0.00 0.00 0.00 54 1017.8
20260502170323 61 60 1.7 3.5 0.00 0.00 0.00 55 1017.8
20260502170218 61 35 0.9 3.5 0.00 0.00 0.00 56 1017.8
20260502170134 61 354 0.9 2.6 0.00 0.00 0.00 57 1017.8
20260502164315 59 303 0.9 3.5 0.00 0.00 0.00 54 1017.7
20260502164213 60 294 0.9 3.5 0.00 0.00 0.00 53 1017.7
20260502164128 60 285 0.9 3.5 0.00 0.00 0.00 55 1017.7
20260502164022 60 318 1.7 3.5 0.00 0.00 0.00 54 1017.7
20260502163935 60 332 0.9 3.5 0.00 0.00 0.00 54 1017.7
20260502163819 60 327 0.9 3.5 0.00 0.00 0.00 53 1017.6
20260502163715 60 326 1.7 3.5 0.00 0.00 0.00 53 1017.7
20260502163630 60 307 1.7 3.5 0.00 0.00 0.00 54 1017.7
20260502163525 60 299 0.9 3.5 0.00 0.00 0.00 56 1017.7
20260502163410 60 293 0.9 2.6 0.00 0.00 0.00 55 1017.7
20260502163343 60 317 0.9 2.6 0.00 0.00 0.00 53 1017.7
20260502163238 60 322 0.0 1.7 0.00 0.00 0.00 56 1017.7
20260502163129 60 354 0.0 1.7 0.00 0.00 0.00 58 1017.7
20260502163023 60 31 0.0 1.7 0.00 0.00 0.00 53 1017.7
20260502162913 60 31 0.0 1.7 0.00 0.00 0.00 55 1017.7
20260502162825 60 31 0.9 1.7 0.00 0.00 0.00 57 1017.8
20260502162711 60 37 0.0 1.7 0.00 0.00 0.00 61 1017.7
20260502162634 60 36 0.0 1.7 0.00 0.00 0.00 58 1017.8
20260502162529 60 36 0.0 1.7 0.00 0.00 0.00 57 1017.8
20260502162417 60 36 0.9 1.7 0.00 0.00 0.00 55 1017.7
20260502162350 60 36 0.9 1.7 0.00 0.00 0.00 57 1017.8
20260502162237 60 35 0.0 1.7 0.00 0.00 0.00 61 1017.8
20260502162148 59 14 0.0 0.9 0.00 0.00 0.00 60 1017.8
20260502162021 59 318 0.0 0.9 0.00 0.00 0.00 60 1017.8
20260502161934 59 318 0.0 0.9 0.00 0.00 0.00 60 1017.9
20260502161818 59 318 0.0 0.9 0.00 0.00 0.00 60 1017.9
20260502161718 59 318 0.0 0.9 0.00 0.00 0.00 59 1018.0
20260502161629 59 344 0.0 0.9 0.00 0.00 0.00 60 1017.9
20260502161523 58 344 0.0 0.9 0.00 0.00 0.00 61 1018.0
20260502161435 58 344 0.0 0.9 0.00 0.00 0.00 57 1018.0
20260502161341 58 344 0.0 0.9 0.00 0.00 0.00 57 1017.9
20260502161237 58 344 0.0 0.9 0.00 0.00 0.00 58 1018.1
20260502161127 58 344 0.0 0.9 0.00 0.00 0.00 58 1018.0
20260502161032 57 344 0.0 0.9 0.00 0.00 0.00 59 1018.0
20260502160918 57 344 0.0 1.7 0.00 0.00 0.00 56 1018.0
20260502160824 57 344 0.0 1.7 0.00 0.00 0.00 56 1018.0
20260502160738 57 344 0.0 1.7 0.00 0.00 0.00 56 1017.9
20260502160628 57 344 0.0 1.7 0.00 0.00 0.00 56 1018.1
20260502160523 57 344 0.9 1.7 0.00 0.00 0.00 57 1018.0
20260502160412 57 344 0.0 1.7 0.00 0.00 0.00 59 1018.1
20260502160325 57 344 0.0 1.7 0.00 0.00 0.00 62 1018.1
20260502160218 57 344 0.0 2.6 0.00 0.00 0.00 63 1018.1
20260502160151 57 344 0.0 2.6 0.00 0.00 0.00 63 1018.1
20260502152309 54 348 0.9 1.7 0.00 0.00 0.00 67 1018.1
20260502152141 54 348 0.9 1.7 0.00 0.00 0.00 68 1018.0
20260502152033 54 348 0.9 1.7 0.00 0.00 0.00 68 1018.0
20260502151918 54 348 0.9 2.6 0.00 0.00 0.00 67 1018.0
20260502151824 54 348 0.9 2.6 0.00 0.00 0.00 67 1018.0
20260502151709 54 348 0.9 2.6 0.00 0.00 0.00 67 1018.0
20260502151658 54 348 0.9 2.6 0.00 0.00 0.00 67 1018.0
20260502151511 54 348 0.0 2.6 0.00 0.00 0.00 67 1018.0
20260502151417 54 348 0.9 2.6 0.00 0.00 0.00 68 1018.0
20260502151323 54 348 0.9 2.6 0.00 0.00 0.00 69 1018.0
20260502151227 54 348 0.9 2.6 0.00 0.00 0.00 69 1018.0
20260502151121 53 348 0.9 2.6 0.00 0.00 0.00 67 1018.0
20260502151027 53 308 0.9 2.6 0.00 0.00 0.00 67 1017.9
20260502150912 53 308 0.9 2.6 0.00 0.00 0.00 67 1017.9
20260502150840 53 308 0.9 2.6 0.00 0.00 0.00 66 1018.0
20260502150714 53 308 0.9 2.6 0.00 0.00 0.00 67 1018.0
20260502150647 53 309 0.9 1.7 0.00 0.00 0.00 67 1018.0
20260502150528 53 309 0.9 1.7 0.00 0.00 0.00 67 1018.0
20260502150417 52 309 0.9 1.7 0.00 0.00 0.00 67 1018.0
20260502150323 52 309 0.9 1.7 0.00 0.00 0.00 68 1018.0
20260502150209 52 309 0.9 1.7 0.00 0.00 0.00 68 1018.0
20260502150131 52 321 0.9 1.7 0.00 0.00 0.00 69 1018.0
20260502140122 46 261 0.0 1.7 0.00 0.00 0.00 73 1017.7
20260502130711 42 76 0.0 0.9 0.00 0.00 0.00 72 1017.4
20260502130622 42 76 0.0 0.9 0.00 0.00 0.00 72 1017.4
20260502130520 42 76 0.0 0.9 0.00 0.00 0.00 72 1017.3
20260502130433 42 76 0.0 0.9 0.00 0.00 0.00 72 1017.4
20260502130339 42 76 0.0 0.9 0.00 0.00 0.00 72 1017.5
20260502130213 42 76 0.0 0.9 0.00 0.00 0.00 72 1017.5
20260502130125 42 76 0.0 0.9 0.00 0.00 0.00 72 1017.5
20260502123714 42 75 0.0 0.9 0.00 0.00 0.00 73 1017.2
20260502123647 42 76 0.0 0.9 0.00 0.00 0.00 73 1017.2
20260502123541 41 76 0.0 0.9 0.00 0.00 0.00 74 1017.1
20260502123426 41 76 0.0 0.9 0.00 0.00 0.00 75 1017.2
20260502123315 41 75 0.0 0.9 0.00 0.00 0.00 75 1017.2
20260502123238 41 75 0.0 0.9 0.00 0.00 0.00 75 1017.3
20260502123129 41 76 0.0 0.9 0.00 0.00 0.00 74 1017.2
20260502123023 41 75 0.0 0.9 0.00 0.00 0.00 74 1017.3
20260502122909 41 76 0.0 3.5 0.00 0.00 0.00 74 1017.2
20260502122815 41 76 0.0 3.5 0.00 0.00 0.00 74 1017.3
20260502122714 41 76 0.0 3.5 0.00 0.00 0.00 74 1017.2
20260502122626 41 75 0.0 3.5 0.00 0.00 0.00 74 1017.3
20260502122521 41 76 0.0 3.5 0.00 0.00 0.00 73 1017.3
20260502122433 41 75 0.0 3.5 0.00 0.00 0.00 73 1017.2
20260502122319 41 76 0.0 3.5 0.00 0.00 0.00 72 1017.1
20260502122218 41 76 0.9 3.5 0.00 0.00 0.00 72 1017.2
20260502122129 42 76 0.9 3.5 0.00 0.00 0.00 72 1017.2
20260502122024 42 87 0.9 3.5 0.00 0.00 0.00 73 1017.3
20260502121909 42 209 0.0 3.5 0.00 0.00 0.00 73 1017.2
20260502121815 42 208 0.0 3.5 0.00 0.00 0.00 73 1017.2
20260502121715 42 208 0.9 3.5 0.00 0.00 0.00 73 1017.1
20260502121649 42 209 0.9 3.5 0.00 0.00 0.00 73 1017.2
20260502121528 42 83 0.0 3.5 0.00 0.00 0.00 72 1017.2
20260502121414 42 83 0.0 3.5 0.00 0.00 0.00 72 1017.3
20260502121319 42 82 0.9 3.5 0.00 0.00 0.00 71 1017.3
20260502121216 42 83 0.9 3.5 0.00 0.00 0.00 72 1017.2
20260502121139 42 83 0.9 3.5 0.00 0.00 0.00 73 1017.2
20260502121017 42 218 0.0 2.6 0.00 0.00 0.00 73 1017.1
20260502120922 42 217 0.0 2.6 0.00 0.00 0.00 73 1017.1
20260502120835 42 218 0.9 2.6 0.00 0.00 0.00 73 1017.1
20260502120711 42 217 0.0 2.6 0.00 0.00 0.00 73 1017.1
20260502120636 42 217 0.0 2.6 0.00 0.00 0.00 73 1017.1
20260502120514 42 142 0.9 2.6 0.00 0.00 0.00 73 1017.3
20260502120447 42 141 1.7 2.6 0.00 0.00 0.00 73 1017.1
20260502120312 43 141 1.7 2.6 0.00 0.00 0.00 73 1017.2
20260502120218 43 144 0.9 2.6 0.00 0.00 0.00 73 1017.2
20260502120140 43 156 0.0 1.7 0.00 0.00 0.00 73 1017.2
20260502115922 43 155 0.9 1.7 0.00 0.00 0.00 73 1017.1
20260502115835 43 155 0.9 1.7 0.00 0.00 0.00 72 1017.1
20260502115720 43 155 1.7 1.7 0.00 0.00 0.00 72 1017.1
20260502115636 43 155 0.9 1.7 0.00 0.00 0.00 72 1017.1
20260502115538 43 172 0.9 1.7 0.00 0.00 0.00 71 1017.1
20260502115419 43 172 0.0 0.9 0.00 0.00 0.00 71 1017.1
20260502115352 43 172 0.0 0.9 0.00 0.00 0.00 70 1017.2
20260502115232 43 172 0.9 0.9 0.00 0.00 0.00 70 1017.2
20260502115143 44 172 0.9 0.9 0.00 0.00 0.00 71 1017.1
20260502115016 44 216 0.0 0.9 0.00 0.00 0.00 71 1017.1
20260502114949 44 216 0.0 0.0 0.00 0.00 0.00 70 1017.1
20260502114834 44 216 0.0 0.0 0.00 0.00 0.00 70 1017.1
20260502114737 44 216 0.0 0.0 0.00 0.00 0.00 70 1017.0
20260502114620 44 216 0.0 0.0 0.00 0.00 0.00 70 1017.1
20260502114411 44 216 0.0 1.7 0.00 0.00 0.00 69 1017.2
20260502114344 44 216 0.0 1.7 0.00 0.00 0.00 69 1017.2
20260502114230 44 216 0.0 1.7 0.00 0.00 0.00 68 1017.0
20260502114142 44 216 0.0 1.7 0.00 0.00 0.00 68 1017.0
20260502114015 44 216 0.0 1.7 0.00 0.00 0.00 68 1017.1
20260502113940 44 216 0.0 1.7 0.00 0.00 0.00 68 1017.1
20260502113809 45 216 0.0 1.7 0.00 0.00 0.00 67 1017.0
20260502113712 45 216 0.0 1.7 0.00 0.00 0.00 67 1017.0
20260502113623 45 216 0.9 1.7 0.00 0.00 0.00 67 1017.0
20260502113517 45 216 0.0 1.7 0.00 0.00 0.00 67 1017.1
20260502113423 45 216 0.0 0.9 0.00 0.00 0.00 67 1017.0
20260502113337 45 216 0.0 0.0 0.00 0.00 0.00 67 1017.0
20260502113216 45 216 0.0 0.0 0.00 0.00 0.00 67 1017.0
20260502113148 45 216 0.0 0.0 0.00 0.00 0.00 67 1017.0
20260502113021 45 216 0.0 0.0 0.00 0.00 0.00 67 1017.0
20260502112926 45 216 0.0 0.0 0.00 0.00 0.00 67 1017.0
20260502112812 45 216 0.0 0.0 0.00 0.00 0.00 68 1017.0
20260502112735 45 216 0.0 0.0 0.00 0.00 0.00 68 1017.1
20260502112623 45 216 0.0 0.0 0.00 0.00 0.00 68 1017.0
20260502112545 45 216 0.0 0.0 0.00 0.00 0.00 68 1017.0
20260502112409 45 216 0.0 0.0 0.00 0.00 0.00 68 1017.0
20260502112342 45 216 0.0 0.0 0.00 0.00 0.00 68 1017.1
20260502112218 45 216 0.0 0.0 0.00 0.00 0.00 68 1017.1
20260502112120 45 216 0.0 0.0 0.00 0.00 0.00 68 1017.1
20260502112014 45 216 0.0 0.0 0.00 0.00 0.00 68 1017.1
20260502111924 45 216 0.0 0.0 0.00 0.00 0.00 68 1017.1
20260502111836 45 216 0.0 0.0 0.00 0.00 0.00 68 1017.1
20260502111714 45 216 0.0 0.0 0.00 0.00 0.00 68 1017.1
20260502111658 45 216 0.0 0.0 0.00 0.00 0.00 67 1017.1
20260502111511 45 216 0.0 0.0 0.00 0.00 0.00 67 1017.1
20260502111444 45 216 0.0 0.0 0.00 0.00 0.00 67 1017.1
20260502111313 45 216 0.0 0.0 0.00 0.00 0.00 67 1017.1
20260502111230 45 216 0.0 0.0 0.00 0.00 0.00 67 1017.1
20260502111142 45 216 0.0 0.0 0.00 0.00 0.00 67 1017.1
20260502111022 45 216 0.0 0.0 0.00 0.00 0.00 67 1017.1
20260502110928 45 216 0.0 0.0 0.00 0.00 0.00 67 1017.1
20260502110813 45 216 0.0 0.0 0.00 0.00 0.00 67 1017.1
20260502110735 45 216 0.0 0.0 0.00 0.00 0.00 67 1017.1
20260502110629 45 216 0.0 0.0 0.00 0.00 0.00 66 1017.1
20260502110523 45 216 0.0 0.0 0.00 0.00 0.00 66 1017.1
20260502110409 46 216 0.0 0.0 0.00 0.00 0.00 65 1017.1
20260502110147 46 216 0.0 0.0 0.00 0.00 0.00 66 1017.1
20260502110023 46 216 0.0 1.7 0.00 0.00 0.00 66 1017.1
20260502105929 46 216 0.0 1.7 0.00 0.00 0.00 66 1017.1
20260502105814 46 216 0.0 1.7 0.00 0.00 0.00 66 1017.1
20260502105710 46 216 0.0 1.7 0.00 0.00 0.00 65 1017.1
20260502105642 46 216 0.0 1.7 0.00 0.00 0.00 65 1017.1
20260502105538 46 216 0.0 1.7 0.00 0.00 0.00 65 1017.1
20260502105434 46 216 0.0 1.7 0.00 0.00 0.00 65 1017.1
20260502105315 46 216 0.9 1.7 0.00 0.00 0.00 65 1017.2
20260502105211 46 216 0.9 1.7 0.00 0.00 0.00 65 1017.1
20260502105122 46 216 0.9 1.7 0.00 0.00 0.00 66 1017.2
20260502105017 46 216 0.0 1.7 0.00 0.00 0.00 66 1017.2
20260502104929 46 145 0.0 0.0 0.00 0.00 0.00 66 1017.1
20260502104818 46 145 0.0 0.0 0.00 0.00 0.00 66 1017.2
20260502104714 46 145 0.0 0.0 0.00 0.00 0.00 66 1017.2
20260502104647 46 145 0.0 0.0 0.00 0.00 0.00 66 1017.2
20260502104520 46 145 0.0 0.0 0.00 0.00 0.00 66 1017.2
20260502104426 45 145 0.0 0.0 0.00 0.00 0.00 67 1017.2
20260502104330 45 145 0.0 1.7 0.00 0.00 0.00 67 1017.2
20260502104219 45 145 0.0 1.7 0.00 0.00 0.00 67 1017.2
20260502104140 45 145 0.0 1.7 0.00 0.00 0.00 67 1017.2
20260502104036 45 145 0.0 1.7 0.00 0.00 0.00 67 1017.2
20260502103913 45 145 0.0 1.7 0.00 0.00 0.00 68 1017.2
20260502103818 45 145 0.0 1.7 0.00 0.00 0.00 68 1017.1
20260502103713 45 145 0.0 1.7 0.00 0.00 0.00 68 1017.2
20260502103629 45 145 0.9 1.7 0.00 0.00 0.00 68 1017.1
20260502103523 45 145 0.9 1.7 0.00 0.00 0.00 68 1017.2
20260502103409 45 141 0.0 1.7 0.00 0.00 0.00 68 1017.2
20260502103322 45 122 0.0 0.9 0.00 0.00 0.00 68 1017.1
20260502103217 45 122 0.0 0.0 0.00 0.00 0.00 68 1017.1
20260502103133 45 121 0.0 0.0 0.00 0.00 0.00 68 1017.2
20260502103045 45 122 0.0 0.0 0.00 0.00 0.00 68 1017.2
20260502102909 45 122 0.0 0.0 0.00 0.00 0.00 68 1017.2
20260502102822 45 121 0.0 0.0 0.00 0.00 0.00 68 1017.1
20260502102718 45 122 0.0 0.0 0.00 0.00 0.00 68 1017.1
20260502102621 45 122 0.0 0.0 0.00 0.00 0.00 68 1017.1
20260502102528 45 122 0.0 0.0 0.00 0.00 0.00 67 1017.1
20260502102412 45 122 0.0 0.9 0.00 0.00 0.00 67 1017.1
20260502102338 45 121 0.0 2.6 0.00 0.00 0.00 67 1017.1
20260502102213 45 122 0.0 2.6 0.00 0.00 0.00 67 1017.1
20260502102124 46 122 0.0 2.6 0.00 0.00 0.00 67 1017.2
20260502102027 46 121 0.0 2.6 0.00 0.00 0.00 66 1017.1
20260502101935 46 122 0.0 2.6 0.00 0.00 0.00 66 1017.1
20260502101820 46 121 0.0 2.6 0.00 0.00 0.00 65 1017.1
20260502101716 46 122 0.0 2.6 0.00 0.00 0.00 64 1017.2
20260502101626 46 121 0.9 2.6 0.00 0.00 0.00 64 1017.1
20260502101521 47 122 0.9 2.6 0.00 0.00 0.00 63 1017.2
20260502101434 47 122 0.9 2.6 0.00 0.00 0.00 62 1017.1
20260502101344 47 230 0.0 0.0 0.00 0.00 0.00 62 1017.1
20260502101220 47 229 0.0 0.0 0.00 0.00 0.00 62 1017.1
20260502101121 47 231 0.0 0.0 0.00 0.00 0.00 62 1017.1
20260502101015 48 230 0.0 0.0 0.00 0.00 0.00 62 1017.0
20260502100921 48 230 0.0 0.0 0.00 0.00 0.00 62 1017.1
20260502100826 48 231 0.0 0.0 0.00 0.00 0.00 61 1017.1
20260502100715 48 229 0.0 0.0 0.00 0.00 0.00 61 1017.1
20260502100640 48 230 0.0 0.0 0.00 0.00 0.00 61 1017.1
20260502100530 48 231 0.0 0.0 0.00 0.00 0.00 61 1017.1
20260502100437 48 230 0.0 0.0 0.00 0.00 0.00 61 1017.1
20260502100322 48 231 0.0 0.0 0.00 0.00 0.00 61 1017.0
20260502100246 49 230 0.0 0.0 0.00 0.00 0.00 61 1017.0
20260502100131 49 231 0.0 0.0 0.00 0.00 0.00 61 1017.1
20260502091426 48 229 0.0 2.6 0.00 0.00 0.00 58 1017.0
20260502091314 48 229 0.0 2.6 0.00 0.00 0.00 58 1016.9
20260502091210 48 231 0.9 2.6 0.00 0.00 0.00 59 1017.0
20260502091143 48 231 0.9 2.6 0.00 0.00 0.00 59 1017.0
20260502091015 48 231 0.9 2.6 0.00 0.00 0.00 59 1017.0
20260502090947 48 243 0.9 1.7 0.00 0.00 0.00 60 1017.0
20260502090832 48 243 0.0 1.7 0.00 0.00 0.00 60 1017.0
20260502090738 48 243 0.9 1.7 0.00 0.00 0.00 60 1016.9
20260502090646 48 243 0.9 1.7 0.00 0.00 0.00 60 1016.9
20260502090541 48 240 0.9 1.7 0.00 0.00 0.00 61 1016.9
20260502090453 48 240 0.9 1.7 0.00 0.00 0.00 61 1016.9
20260502090318 47 240 0.9 1.7 0.00 0.00 0.00 61 1016.9
20260502090213 47 240 0.0 0.9 0.00 0.00 0.00 62 1017.0
20260502090125 47 239 0.0 0.9 0.00 0.00 0.00 62 1017.0
20260502071512 50 154 0.0 1.7 0.00 0.00 0.00 57 1016.9
20260502071424 50 162 0.9 1.7 0.00 0.00 0.00 57 1016.9
20260502071310 50 162 0.9 1.7 0.00 0.00 0.00 57 1016.9
20260502071215 50 162 0.0 1.7 0.00 0.00 0.00 57 1016.8
20260502071200 50 162 0.0 0.9 0.00 0.00 0.00 58 1016.8
20260502071013 50 137 0.0 0.0 0.00 0.00 0.00 58 1016.9
20260502070923 50 137 0.0 0.0 0.00 0.00 0.00 58 1016.9
20260502070835 50 138 0.0 0.0 0.00 0.00 0.00 59 1016.9
20260502070721 50 137 0.0 0.9 0.00 0.00 0.00 59 1016.9
20260502070635 50 138 0.0 0.9 0.00 0.00 0.00 59 1016.9
20260502070517 50 137 0.0 0.9 0.00 0.00 0.00 59 1016.9
20260502070414 50 137 0.0 0.9 0.00 0.00 0.00 59 1016.9